[[{"header":{"parameterUnit":"m.s-1","parameterCategory":1,"la1":30.2991,"la2":30.254,"lo1":-89.0895,"lo2":-89.0444,"dy":0.0017,"dx":0.0017,"nx":28,"ny":28,"refTime":"2026-01-07T03:00:00:Z","depth":0,"parameterNumber":2,"parameterNumberName":"U-component_of_WINDS"},"data":[0,0,0,0,0,0,0,0,0,0,0,0,0,0,0,0,0,0,0,0,0,0,0,0,0,0,0,0,0,0,0,0,0,0,0,0,0,0,0,0,0,0,0,0,0,0,0,0,0,0,0,0,0,0,0,0,0,0,0.9974,0.9975,0,1.0022,1.0023,1.0024,0.9975,0.9973,0.9971,0.9969,1.0023,1.0026,1.0029,0,0,0,0,0,0,0,0,0,0,0,0,0,0.9844,0.9847,0.9974,0.9975,0.9976,1.0022,1.0023,1.0024,0.9975,0.9973,0.9971,0.9968,1.0021,1.0025,1.0029,0,0,0,0,0,0,0,0,0,0,0,0,0,0.9897,0.9847,0.9974,0.9957,0.9956,1.0022,1.0023,1.0024,0.9976,0.9973,0.997,0.9967,1.002,1.0025,1.003,1.0117,0,0,1.0044,1.0046,0,0,0,0,0,0,0,0,0.9894,0.9902,0.9959,0.9958,0.9957,0.999,0.9996,1.0055,0.9976,0.9968,0.9969,0.9966,1.0014,1.0019,1.0035,1.0119,1.0121,1.0045,1.0048,1.005,1.0051,0,0,0,0,0,0,0,0.9891,0.99,0.9993,0.996,0.9959,0.9948,0.9952,1.0007,1.0007,0.9969,0.9965,0.9972,1.0013,1.003,1.0036,1.0122,1.0045,1.0049,1.0052,1.0054,1.0281,1.0284,0,0,0,0,0,0,0.9888,0.9897,0.9992,0.9995,0.9918,0.9953,0.9957,0.9982,1.0006,1.0007,0.9974,0.9969,1.0023,1.003,1.0037,1.0142,1.005,1.0054,1.0057,1.0278,1.0282,1.0286,0,0,0,0,0,0,0.9886,0.9897,0.999,0.9945,0.9956,0.9958,0.9986,0.9985,1.0002,1.001,1.001,0.9991,1.0021,1.0031,1.0097,1.0143,1.0056,1.0061,1.0275,1.0279,1.0284,1.0351,0,0,0,0,0,0,0.9882,0.9897,0.9929,0.9946,0.9959,1.0048,0.9989,0.9988,1.001,1.0004,1.0026,1.0027,1.002,1.009,1.0102,1.0148,1.0064,1.0271,1.0277,1.0282,1.0345,1.0358,1.0369,0,0,0,0,0,0.9878,0.9947,0.9931,0.9943,0.9999,1.0051,1.0058,1.0047,1.0013,1.0047,1.0052,1.0027,1.0136,1.0098,1.011,1.0159,1.0268,1.0275,1.0282,1.034,1.0355,1.0368,0,0,0,0,0,0,0.9937,0.9949,0.9931,1.0008,1.0029,1.0043,1.0084,1.0064,1.0096,1.0089,1.0075,1.0081,1.0152,1.0161,1.0119,1.0244,1.0196,1.0206,1.0236,1.0251,1.0262,1.026,1.0068,0,0,0,0,0,0.9958,0.9998,1.0007,1.0074,1.0085,1.0083,1.0105,1.0095,1.0116,1.0125,1.0135,1.0159,1.0198,1.0224,1.0261,1.0345,1.035,1.0385,1.0396,1.0406,1.0416,1.0462,1.0478,1.0309,1.0309,1.0309,0,0,1.0004,1.0015,1.0042,1.0086,1.0101,1.0144,1.0091,1.0139,1.0171,1.0133,1.0197,1.0205,1.023,1.0306,1.034,1.0316,1.0463,1.0415,1.0423,1.0427,1.0471,1.0487,1.0502,1.0314,1.0313,1.0312,0,0,1.011,1.0122,1.0179,1.0195,1.0217,1.0215,1.0229,1.0246,1.025,1.0313,1.0286,1.0324,1.0392,1.0411,1.043,1.0542,1.052,1.0554,1.0617,1.0662,1.0676,1.0687,1.0729,1.0744,1.0563,1.0563,1.0563,0,1.0164,1.0227,1.0211,1.0261,1.0282,1.0247,1.0306,1.0323,1.0357,1.0373,1.0345,1.0429,1.0444,1.0524,1.0551,1.0567,1.0584,1.0553,1.0675,1.0686,1.0697,1.0737,1.0752,1.0567,1.0567,1.0566,1.0566,0,1.0293,1.0338,1.0381,1.0414,1.0439,1.0493,1.0487,1.0515,1.0502,1.0503,1.0568,1.0584,1.0623,1.0641,1.0629,1.0721,1.0705,1.0676,1.0628,1.0718,1.0755,1.077,1.0573,1.0572,1.057,1.0569,0,0,1.044,1.0462,1.0478,1.0493,1.0515,1.055,1.0602,1.064,1.0665,1.0689,1.0734,1.0792,1.0765,1.0786,1.0776,1.0816,1.0905,1.0782,1.0782,1.0806,1.1009,1.1032,1.105,1.089,1.0893,1.0895,1.1007,0,1.0547,1.0638,1.0625,1.0713,1.0754,1.0722,1.0768,1.0787,1.0789,1.0826,1.0828,1.087,1.0831,1.0843,1.0881,1.0887,1.0946,1.0878,1.0934,1.0936,1.0931,1.1069,1.1094,1.1199,1.1022,1.1024,1.1026,0,1.0685,1.0714,1.0806,1.0821,1.0838,1.088,1.0914,1.0948,1.0969,1.0968,1.0991,1.0974,1.1028,1.0977,1.1052,1.1006,1.1028,1.1034,1.1038,1.1045,1.0988,1.1082,1.1232,1.1249,1.1048,1.1046,1.1045,0,1.0785,1.0846,1.0909,1.0922,1.0942,1.0972,1.0982,1.1,1.1024,1.1053,1.1069,1.1104,1.1125,1.1153,1.1146,1.1109,1.1224,1.1172,1.1227,1.1227,1.1254,1.1253,1.1413,1.1265,1.1264,1.1264,1.1264,0,1.0908,1.0966,1.0954,1.0993,1.1058,1.1042,1.1106,1.1112,1.1129,1.117,1.1143,1.1182,1.1169,1.1208,1.1203,1.1267,1.1276,1.1278,1.1276,1.1282,1.1282,1.1298,1.1291,1.1268,1.1267,1.1266,1.1266,0,1.1031,1.1025,1.1092,1.1105,1.1109,1.1157,1.1168,1.1205,1.1205,1.1257,1.1268,1.1268,1.1312,1.1307,1.1357,1.1353,1.1434,1.1422,1.1426,1.1425,1.148,1.1476,1.1658,1.1682,1.1516,1.1517,1.1519,0,1.1111,1.1155,1.1172,1.1197,1.1208,1.1248,1.1272,1.1258,1.1284,1.1312,1.1346,1.1387,1.142,1.1492,1.1497,1.1535,1.1526,1.1587,1.1532,1.1536,1.153,1.1528,1.1533,1.1599,1.1601,1.1602,1.1603,0,1.1254,1.1249,1.1283,1.1317,1.1345,1.1371,1.1395,1.1417,1.1406,1.1436,1.148,1.1505,1.1555,1.1598,1.1633,1.1644,1.1624,1.162,1.1635,1.1643,1.1644,1.1646,1.1459,1.1617,1.1616,1.1615,1.1614,1.1613,1.136,1.1397,1.1415,1.1455,1.1471,1.1493,1.1529,1.1533,1.1569,1.1608,1.1597,1.1648,1.1669,1.1714,1.1729,1.1769,1.1747,1.1768,1.1774,1.1781,1.1788,1.1636,1.1775,1.1775,1.1774,1.1774,1.1774,0,1.1503,1.1513,1.1549,1.1582,1.1614,1.1588,1.1613,1.1641,1.1686,1.1706,1.1738,1.1789,1.183,1.1838,1.1877,1.1907,1.1899,1.1918,1.1917,1.1921,1.1804,1.1788,1.1925,1.1925,1.1925,1.1925,1.1925,1.1925,1.1582,1.1645,1.1642,1.1713,1.1722,1.177,1.1787,1.1808,1.1824,1.1882,1.1916,1.192,1.1936,1.1975,1.2012,1.2013,1.203,1.2054,1.2052,1.1944,1.1929,1.1915,1.19,1.2057,1.2057,1.2165,1.2166,1.2167]},{"header":{"parameterUnit":"m.s-1","parameterCategory":1,"la1":30.2991,"la2":30.254,"lo1":-89.0895,"lo2":-89.0444,"dy":0.0017,"dx":0.0017,"nx":28,"ny":28,"refTime":"2026-01-07T03:00:00:Z","depth":0,"parameterNumber":3,"parameterNumberName":"V-component_of_WINDS"},"data":[0,0,0,0,0,0,0,0,0,0,0,0,0,0,0,0,0,0,0,0,0,0,0,0,0,0,0,0,0,0,0,0,0,0,0,0,0,0,0,0,0,0,0,0,0,0,0,0,0,0,0,0,0,0,0,0,0,0,3.6176,3.6178,0,3.63,3.6301,3.6302,3.6277,3.6274,3.6272,3.627,3.6392,3.6397,3.6403,0,0,0,0,0,0,0,0,0,0,0,0,0,3.5914,3.5919,3.6176,3.6178,3.6179,3.6299,3.6301,3.6303,3.6277,3.6274,3.6272,3.6269,3.639,3.6397,3.6403,0,0,0,0,0,0,0,0,0,0,0,0,0,3.6032,3.5921,3.6176,3.6181,3.6183,3.6299,3.6301,3.6303,3.6278,3.6274,3.6271,3.6268,3.6388,3.6396,3.6404,3.6522,0,0,3.6429,3.6432,0,0,0,0,0,0,0,0,3.6025,3.6041,3.6179,3.6181,3.6183,3.6269,3.6253,3.6376,3.6278,3.6241,3.627,3.6266,3.6354,3.6364,3.6395,3.6527,3.6533,3.6429,3.6434,3.6438,3.644,0,0,0,0,0,0,0,3.6017,3.6036,3.6225,3.6181,3.6183,3.6176,3.6189,3.6277,3.6315,3.6244,3.6243,3.6258,3.6354,3.6387,3.6398,3.6534,3.6429,3.6436,3.6441,3.6444,3.677,3.6774,0,0,0,0,0,0,3.6008,3.6029,3.6221,3.6229,3.6094,3.6183,3.6198,3.6245,3.6314,3.6321,3.6261,3.6256,3.6375,3.6388,3.6402,3.6546,3.6438,3.6445,3.645,3.6767,3.6771,3.6775,0,0,0,0,0,0,3.6002,3.6025,3.6216,3.6129,3.6152,3.6191,3.6245,3.6249,3.6282,3.6327,3.6333,3.6288,3.6373,3.639,3.6493,3.6549,3.6449,3.6456,3.6762,3.6768,3.6773,3.6833,0,0,0,0,0,0,3.5995,3.6023,3.6069,3.613,3.6157,3.6306,3.6248,3.6254,3.6297,3.6292,3.6354,3.636,3.6372,3.6481,3.6501,3.6559,3.6462,3.6757,3.6765,3.6771,3.6826,3.684,3.6852,0,0,0,0,0,3.5985,3.608,3.6072,3.6095,3.6216,3.631,3.6325,3.6337,3.6301,3.6348,3.6376,3.6358,3.6539,3.6491,3.6514,3.6575,3.6754,3.6762,3.6771,3.6821,3.6838,3.6852,0,0,0,0,0,0,3.6023,3.6088,3.608,3.6197,3.6248,3.6305,3.6364,3.6355,3.6416,3.6409,3.642,3.6434,3.6539,3.6566,3.6512,3.6693,3.6641,3.6655,3.6671,3.6688,3.6701,3.6693,3.6469,0,0,0,0,0,3.6046,3.6118,3.6169,3.6268,3.6294,3.6325,3.6366,3.6371,3.6424,3.6445,3.6481,3.6532,3.66,3.6645,3.671,3.6829,3.6843,3.6882,3.6895,3.6905,3.6918,3.6984,3.7003,3.6804,3.6804,3.6803,0,0,3.6092,3.6136,3.6181,3.6277,3.6317,3.6391,3.6343,3.6423,3.6477,3.6457,3.6557,3.6584,3.6641,3.6753,3.6804,3.678,3.6975,3.6916,3.6924,3.6931,3.6995,3.7014,3.703,3.6809,3.6808,3.6807,0,0,3.6215,3.6255,3.6343,3.6384,3.6447,3.6466,3.6487,3.6546,3.6564,3.6664,3.6651,3.6714,3.6832,3.6874,3.6911,3.7049,3.7036,3.707,3.7138,3.7203,3.7218,3.7232,3.7284,3.7302,3.7081,3.7081,3.7081,0,3.6265,3.6377,3.6388,3.647,3.6513,3.6499,3.6587,3.6626,3.6706,3.6735,3.6706,3.6854,3.6891,3.7014,3.7048,3.7077,3.7101,3.7064,3.7215,3.7229,3.7243,3.7292,3.7311,3.7085,3.7085,3.7084,3.7084,0,3.6436,3.6513,3.6576,3.6656,3.6705,3.679,3.6813,3.6861,3.6861,3.6884,3.6986,3.703,3.7105,3.7133,3.7134,3.7256,3.7239,3.7212,3.7162,3.7265,3.7312,3.733,3.7091,3.7089,3.7088,3.7087,0,0,3.6588,3.6673,3.6696,3.6733,3.68,3.686,3.6943,3.7017,3.7059,3.7114,3.7184,3.7284,3.726,3.7302,3.7306,3.7363,3.7472,3.7329,3.7331,3.7356,3.7611,3.7632,3.7654,3.7462,3.7465,3.7468,3.7607,0,3.6719,3.6869,3.6881,3.7015,3.7087,3.7074,3.7147,3.7195,3.7218,3.7281,3.7305,3.7377,3.7339,3.7364,3.7419,3.7447,3.7523,3.7437,3.7528,3.7531,3.7517,3.7678,3.7701,3.7829,3.7624,3.7628,3.763,0,3.6892,3.6955,3.7097,3.7155,3.7186,3.7251,3.7321,3.7382,3.7436,3.7448,3.7495,3.7492,3.7576,3.752,3.7637,3.7578,3.7616,3.7635,3.764,3.7651,3.7589,3.7695,3.787,3.789,3.7658,3.7656,3.7654,0,3.6992,3.7111,3.7212,3.7243,3.7313,3.7359,3.739,3.7441,3.7486,3.7545,3.7574,3.7642,3.768,3.7733,3.7748,3.7705,3.7865,3.7809,3.7878,3.7878,3.7914,3.7912,3.81,3.7934,3.7934,3.7933,3.7933,0,3.7139,3.7227,3.7258,3.7321,3.7418,3.7431,3.7527,3.7554,3.76,3.7667,3.7657,3.772,3.7735,3.78,3.7811,3.7907,3.7924,3.7936,3.7939,3.7939,3.7938,3.7966,3.7958,3.7939,3.7937,3.7936,3.7936,0,3.7268,3.7293,3.7402,3.746,3.7476,3.7546,3.7594,3.7654,3.7674,3.7759,3.7779,3.7812,3.7888,3.7907,3.7997,3.8005,3.8119,3.8112,3.8102,3.8103,3.8171,3.8165,3.8386,3.8416,3.8227,3.8229,3.823,0,3.7362,3.743,3.7495,3.754,3.7573,3.7645,3.7691,3.7705,3.7753,3.782,3.7871,3.7946,3.8008,3.8129,3.816,3.8229,3.8225,3.8297,3.8235,3.8234,3.8229,3.8226,3.8234,3.831,3.8312,3.8314,3.8315,0,3.7526,3.7535,3.7602,3.7674,3.7729,3.7786,3.784,3.7876,3.7898,3.7951,3.803,3.8078,3.8171,3.8246,3.8315,3.8345,3.8335,3.8334,3.8354,3.8356,3.8349,3.8356,3.8137,3.8329,3.8328,3.8327,3.8326,3.8325,3.7642,3.7702,3.7758,3.7833,3.7876,3.7927,3.7986,3.8015,3.8081,3.816,3.8163,3.8249,3.8301,3.8393,3.8427,3.8494,3.8472,3.85,3.8508,3.8515,3.8523,3.8336,3.8506,3.8506,3.8505,3.8505,3.8505,0,3.7807,3.7843,3.7912,3.7989,3.8048,3.8033,3.8092,3.8142,3.8219,3.8269,3.833,3.8421,3.8493,3.853,3.8602,3.8648,3.8645,3.8667,3.8665,3.8672,3.8537,3.8514,3.8668,3.8668,3.8668,3.8668,3.8668,3.8668,3.7901,3.8003,3.8018,3.8141,3.8175,3.8261,3.8296,3.8343,3.8383,3.8486,3.8547,3.8571,3.8615,3.869,3.8756,3.8765,3.8793,3.8818,3.8824,3.8698,3.8681,3.8666,3.8644,3.8823,3.8824,3.8954,3.8956,3.8956]}]]